Location: Ku?niki
(51.4449°N, 17.8974°E)
Time: 09:58:06
(UTC+00:00)

Nadezhda 4 Rocket - Pass Details

Date: 18 September 2020
Orbit: 949 x 993 km, 82.9° (Epoch: 25 October)

Event Time Altitude Azimuth Distance (km) Brightness Sun altitude
Rises 18:49:36 0° 348° (NNW) 3,643 7.6 -18.0°
Reaches altitude 10° 18:52:06 10° 347° (NNW) 2,690 6.9 -18.3°
Maximum altitude 18:58:13 73° 265° (W) 995 4.1 -19.2°
Drops below altitude 10° 19:04:17 10° 181° (S) 2,670 6.0 -20.0°
Enters shadow 19:04:39 - 181° (S) 2,807 6.1 -20.0°
